Location: Clayton (historical)
(34.0300°N, 118.0259°W)
Time: 23:16:12
(UTC+00:00)

Cosmos 1302 Rocket - Pass Details

Date: 29 October 2020
Orbit: 756 x 777 km, 74.0° (Epoch: 29 November)

Event Time Altitude Azimuth Distance (km) Brightness Sun altitude
Exits shadow 12:30:04 39° 236° (SW) 1,154 4.5 -21.1°
Drops below altitude 10° 12:34:10 10° 190° (S) 2,304 6.4 -20.3°
Sets 12:36:38 0° 183° (S) 3,224 7.3 -19.8°
